Location: Pettit
(39.0209°N, 79.7181°W)
Time: 19:08:56
(UTC+00:00)

ACS3 Solar Sail - Pass Details

Date: 21 April 2026
Orbit: 894 x 947 km, 97.2° (Epoch: 12 May)

Event Time Altitude Azimuth Distance (km) Brightness Sun altitude
Rises 08:01:49 0° 353° (N) 3,549 5.2 -26.3°
Reaches altitude 10° 08:05:14 10° 332° (NNW) 2,613 4.2 -25.8°
Enters shadow 08:08:10 16° 301° (WNW) 2,244 3.5 -25.4°
